EW3016 Weather Reports


Display with metric or nautical units.
time (UTC)temp
F
wind
direction
speed
MPH
gust
MPH
rain 1hr
in
rain 24hr
in
rain mn
in
humidity
%
barometer
mb
20260903210016 77 0.0 3.0 0.00 1.32 0.31 79 1014.9
20260903203016 77 0.0 0.0 0.00 1.32 0.31 81 1014.8
20260903200016 77 0.0 0.0 0.00 1.32 0.31 80 1014.9
20260903193016 78 0.0 0.0 0.00 1.32 0.31 82 1015.1
20260903190016 78 0.0 5.0 0.00 1.32 0.31 79 1015.3
20260903183016 76 0.0 3.0 0.00 1.32 0.31 83 1015.6
20260903180018 78 248 1.0 6.0 0.00 1.32 0.31 83 1016.0
20260903173016 75 248 1.0 7.0 0.00 1.32 0.31 84 1015.8
20260903170016 75 248 1.0 6.0 0.00 1.32 0.31 87 1015.9
20260903163016 73 0.0 3.0 0.00 1.34 0.31 93 1016.2
20260903160016 71 0.0 6.0 0.00 1.40 0.31 94 1016.4
20260903153036 70 0.0 0.0 0.00 1.74 0.31 95 1016.7
20260903150016 70 0.0 7.0 0.00 1.74 0.31 94 1016.6
20260903143016 69 0.0 0.0 0.00 1.74 0.31 94 1016.5
20260903140016 69 0.0 4.0 0.00 1.74 0.31 95 1016.2
20260903133016 68 0.0 7.0 0.00 1.74 0.31 95 1016.1
20260903130016 68 0.0 8.0 0.00 1.74 0.31 96 1016.3
20260903123016 67 0.0 3.0 0.00 1.74 0.31 97 1016.1
20260903120016 66 0.0 1.0 0.00 1.74 0.31 97 1016.2
20260903113015 66 0.0 3.0 0.00 1.74 0.31 97 1016.1
20260903110016 66 0.0 3.0 0.00 1.74 0.31 96 1016.2
20260903103017 65 0.0 0.0 0.00 1.74 0.31 96 1016.1
20260903100015 65 0.0 0.0 0.00 1.74 0.31 96 1016.0
20260903093015 65 0.0 0.0 0.02 1.74 0.31 96 1016.2
20260903090015 65 0.0 0.0 0.05 1.74 0.31 96 1015.9
20260903083017 65 0.0 0.0 0.04 1.72 0.29 96 1015.8
20260903080018 65 0.0 0.0 0.02 1.69 0.26 96 1016.4
20260903073017 65 0.0 0.0 0.14 1.68 0.25 96 1016.2
20260903070017 66 0.0 0.0 0.16 1.67 0.24 96 1016.0
20260903063017 66 0.0 0.0 0.06 1.54 0.11 96 1016.0
20260903060018 65 158 1.0 11.0 0.03 1.51 0.08 96 1016.0
20260903053017 65 135 3.0 12.0 0.04 1.48 0.05 96 1015.9
20260903050017 65 135 1.0 12.0 0.05 1.48 0.05 96 1016.4
20260903043017 64 135 1.0 11.0 0.05 1.44 0.01 95 1017.4
20260903040017 64 135 3.0 12.0 0.13 1.43 1.43 95 1016.4
20260903033037 64 135 1.0 13.0 0.35 1.39 1.39 95 1016.6
20260903030017 64 135 3.0 14.0 0.86 1.30 1.30 96 1018.1
20260903023137 65 135 3.0 14.0 0.62 1.04 1.06 95 1019.4
20260903020057 65 135 6.0 18.0 0.02 0.44 0.44 94 1018.3
20260903013017 65 113 7.0 16.0 0.00 0.42 0.42 93 1018.5
20260903010017 65 113 4.0 15.0 0.00 0.42 0.42 92 1018.2
20260903003037 66 113 5.0 16.0 0.00 0.42 0.42 93 1017.7
20260903000037 66 135 4.0 15.0 0.00 0.42 0.42 93 1017.7
20260902233017 66 113 3.0 12.0 0.00 0.42 0.42 93 1017.3
20260902230036 67 135 5.0 14.0 0.00 0.42 0.42 92 1018.0
20260902223016 67 135 3.0 13.0 0.00 0.42 0.42 92 1018.5
20260902220017 68 135 4.0 14.0 0.00 0.67 0.42 91 1018.6
20260902213018 69 135 5.0 13.0 0.00 0.67 0.42 90 1018.5